GW2741 Weather Reports


time (UTC)temp
C
wind
direction
speed
KPH
gust
KPH
rain 1hr
cm
rain 24hr
cm
rain mn
cm
humidity
%
barometer
mb
20260904101827 16 306 17.7 33.8 0.03 0.13 2.95 53 1016.2
20260904100926 16 322 14.5 32.2 0.03 0.13 2.95 54 1016.2
20260904100027 16 317 17.7 33.8 0.03 0.13 2.95 53 1016.0
20260904095126 16 331 19.3 37.0 0.03 0.13 2.95 53 1015.8
20260904094227 16 290 20.9 35.4 0.03 0.13 2.95 54 1015.8
20260904093326 16 305 20.9 37.0 0.03 0.13 2.95 56 1015.6
20260904092428 16 313 20.9 35.4 0.00 0.10 2.95 58 1015.2
20260904091527 16 281 19.3 33.8 0.00 0.10 2.95 62 1014.9
20260904090626 16 308 20.9 35.4 0.00 0.10 2.95 66 1014.7
20260904084827 15 285 17.7 33.8 0.00 0.10 2.95 70 1014.1
20260904083928 15 350 11.3 24.1 0.00 0.10 2.95 70 1013.8
20260904083027 15 26 11.3 29.0 0.00 0.10 2.95 70 1013.5
20260904082126 15 338 14.5 32.2 0.00 0.10 2.95 70 1013.5
20260904081227 14 208 11.3 24.1 0.00 0.10 2.95 70 1013.3
20260904080327 14 78 9.7 25.7 0.00 0.10 2.95 70 1013.3
20260904075426 14 284 9.7 19.3 0.00 0.10 2.95 70 1013.3
20260904074527 14 99 8.0 12.9 0.00 0.10 2.95 70 1013.1
20260904073627 14 122 8.0 16.1 0.00 0.10 2.95 70 1013.4
20260904072726 14 278 9.7 17.7 0.00 0.10 2.95 70 1013.2
20260904071826 14 138 8.0 16.1 0.00 0.10 2.95 70 1013.3
20260904070926 13 143 9.7 19.3 0.00 0.10 2.95 70 1013.5
20260904070027 13 141 8.0 16.1 0.00 0.10 2.95 70 1013.2
20260904065126 14 232 8.0 14.5 0.00 0.10 2.95 71 1013.2
20260904064226 13 172 8.0 17.7 0.00 0.10 2.95 71 1013.1
20260904063327 13 142 9.7 30.6 0.00 0.10 2.95 72 1013.0
20260904062427 13 264 9.7 19.3 0.00 0.10 2.95 72 1013.0
20260904061540 13 100 8.0 19.3 0.00 0.10 2.95 72 1013.3
20260903223519 14 165 8.0 16.1 0.03 0.10 0.15 73 1008.1
20260903221719 15 138 8.0 19.3 0.03 0.10 0.15 72 1008.1
20260903220819 15 134 8.0 17.7 0.03 0.10 0.15 73 1008.6
20260903215919 15 157 9.7 19.3 0.03 0.10 0.15 73 1008.3
20260903215019 15 192 9.7 24.1 0.03 0.10 0.15 74 1008.8
20260903214119 15 56 8.0 14.5 0.00 0.05 0.13 75 1008.4
20260903213219 15 114 8.0 17.7 0.00 0.05 0.13 76 1008.6
20260903211419 15 174 9.7 19.3 0.00 0.05 0.13 78 1009.0
20260903210519 15 116 8.0 14.5 0.00 0.10 0.13 79 1009.1
20260903205619 15 156 8.0 17.7 0.00 0.10 0.13 79 1009.0
20260903204719 15 165 9.7 17.7 0.00 0.10 0.13 79 1008.9
20260903203819 15 168 9.7 17.7 0.00 0.10 0.13 78 1009.3
20260903202919 15 176 12.9 19.3 0.00 0.10 0.13 77 1008.9
20260903202019 15 118 14.5 22.5 0.00 0.10 0.13 76 1009.2
20260903195320 15 134 9.7 22.5 0.03 0.10 0.13 75 1009.6
20260903194419 15 157 11.3 22.5 0.03 0.10 0.13 74 1010.0
20260903193519 15 163 11.3 17.7 0.03 0.10 0.13 74 1010.2
20260903192619 15 150 14.5 25.7 0.03 0.10 0.13 73 1010.3
20260903191719 15 181 14.5 24.1 0.03 0.10 0.13 73 1010.1
20260903190819 15 175 11.3 25.7 0.03 0.10 0.13 72 1010.3
20260903185920 15 168 8.0 16.1 0.00 0.05 0.10 71 1010.4
20260903185019 15 170 8.0 20.9 0.00 0.05 0.10 70 1010.1
20260903184119 15 160 8.0 14.5 0.00 0.05 0.10 69 1009.9
20260903183219 15 167 8.0 16.1 0.00 0.05 0.10 67 1010.4
20260903182319 15 117 8.0 19.3 0.00 0.05 0.10 66 1010.3
20260903181419 16 143 9.7 25.7 0.00 0.05 0.10 66 1010.2
20260903180519 16 105 9.7 19.3 0.00 0.05 0.10 66 1010.5
20260903175620 16 160 11.3 19.3 0.00 0.05 0.10 65 1010.7
20260903174719 16 164 11.3 22.5 0.00 0.05 0.10 65 1010.7
20260903173820 16 130 12.9 25.7 0.00 0.05 0.10 66 1010.7
20260903172919 16 110 11.3 22.5 0.00 0.05 0.10 66 1010.6
20260903172019 16 112 9.7 20.9 0.00 0.05 0.10 65 1010.8
20260903171120 16 148 8.0 16.1 0.00 0.05 0.10 65 1010.7
20260903170219 16 131 8.0 17.7 0.00 0.05 0.10 64 1010.6
20260903165320 16 204 8.0 24.1 0.00 0.13 0.10 64 1011.0
20260903163519 16 110 9.7 17.7 0.00 0.13 0.10 64 1010.9
20260903162619 16 344 8.0 17.7 0.00 0.13 0.10 64 1011.2
20260903161720 16 79 8.0 16.1 0.00 0.13 0.10 64 1011.5
20260903160820 17 149 9.7 19.3 0.00 0.13 0.10 65 1011.5
20260903155019 17 146 8.0 14.5 0.00 0.13 0.10 65 1011.6
20260903153219 17 139 11.3 22.5 0.00 0.13 0.10 67 1011.5
20260903151419 17 256 8.0 14.5 0.00 0.13 0.10 67 1011.7
20260903150520 17 165 8.0 17.7 0.00 0.13 0.10 68 1012.0
20260903145619 17 140 8.0 14.5 0.00 0.13 0.10 69 1011.9
20260903144720 17 198 8.0 14.5 0.00 0.13 0.10 70 1011.9
20260903143819 17 116 8.0 16.1 0.00 0.13 0.10 70 1011.9
20260903142920 17 174 8.0 14.5 0.00 0.13 0.10 73 1011.9
20260903142020 17 322 6.4 12.9 0.00 0.13 0.10 74 1012.4
20260903141119 17 128 6.4 11.3 0.00 0.13 0.10 75 1012.6
20260903140220 16 93 4.8 9.7 0.00 0.13 0.10 75 1012.3
20260903135319 16 140 6.4 16.1 0.00 0.13 0.10 76 1012.3
20260903134419 16 271 6.4 16.1 0.00 0.13 0.10 78 1012.4
20260903133520 16 140 4.8 12.9 0.00 0.13 0.10 78 1012.2
20260903132620 16 128 4.8 8.0 0.00 0.13 2.95 78 1012.1
20260903131720 15 156 4.8 11.3 0.03 0.13 2.95 77 1012.4
20260903130820 15 177 8.0 11.3 0.03 0.13 2.95 76 1012.2
20260903125919 15 169 6.4 14.5 0.03 0.13 2.95 75 1012.3
20260903125020 15 125 6.4 14.5 0.03 0.13 2.95 74 1012.5
20260903124119 15 162 9.7 12.9 0.03 0.13 2.95 73 1012.4
20260903123220 15 172 9.7 14.5 0.03 0.13 2.95 71 1012.6
20260903122319 15 161 6.4 12.9 0.03 0.13 2.95 68 1012.5
20260903120520 16 158 4.8 9.7 0.00 0.10 2.95 63 1013.1
20260903114720 17 322 6.4 12.9 0.00 0.10 2.95 61 1013.5
20260903113820 17 91 6.4 12.9 0.00 0.10 2.95 63 1013.2
20260903112920 17 170 8.0 17.7 0.00 0.10 2.95 64 1013.3
20260903112020 17 160 8.0 12.9 0.00 0.10 2.95 64 1013.1
20260903111120 16 154 8.0 17.7 0.00 0.10 2.95 64 1012.9
20260903110220 16 167 9.7 17.7 0.00 0.10 2.95 64 1013.1
20260903104419 16 172 6.4 12.9 0.00 0.10 2.95 62 1012.8
20260903103520 16 172 8.0 16.1 0.00 0.10 2.95 61 1013.0
20260903102620 17 160 8.0 17.7 0.00 0.10 2.95 61 1013.3